Location: Borotín
(49.5055°N, 14.6142°E)
Time: 12:07:43
(UTC+00:00)

Cosmos 2218 Rocket - Pass Details

Date: 27 May 2022
Orbit: 956 x 1005 km, 82.9° (Epoch: 26 June)

Event Time Altitude Azimuth Distance (km) Brightness Sun altitude
Rises 02:07:23 0° 350° (N) 3,669 7.6 -7.8°
Reaches altitude 10° 02:09:53 10° 350° (N) 2,725 6.9 -7.5°
Maximum altitude 02:16:08 86° 262° (W) 988 4.1 -6.8°
Drops below altitude 10° 02:22:26 10° 175° (S) 2,740 6.0 -6.0°
Sets 02:24:57 0° 175° (S) 3,692 6.7 -5.7°
